Terminal Aerodrome Forecast
Issued by NWS Boston, MA

Home | Current Version | Previous Version | Text Only | Print | Product List | Glossary On
Versions: 1 2 3 4 5 6 7 8 9 10 11 12 13 14 15 16 17 18 19 20 21 22
000
FTUS41 KBOX 240855 AAA
TAFBDL
TAF AMD
KBDL 240855Z 2409/2512 31013KT P6SM SCT250
     FM241400 31024G34KT P6SM SKC
     FM242300 32015G25KT P6SM SKC
     FM250100 32010G17KT P6SM SKC
     FM250300 31007KT P6SM SKC
     FM250700 VRB03KT P6SM FEW150=

USA.gov is the U.S. government's official web portal to all federal, state and local government web resources and services.